EHI
0 0 0 0 0 0 0 0 0 0 0 0 0 0 0 1 0 0 0 1 3 4 7 12 16 16 16 18 19 18 17 15 15 15 15 15 11 8 6 3 3 4 4 3
0 0 0 0 0 0 0 0 0 0 0 0 0 0 0 1 0 0 0 1 2 4 7 12 17 17 18 19 21 20 18 16 15 16 16 16 13 10 7 4 3 4 4 3
0 0 0 0 0 0 0 0 0 0 0 0 0 0 0 0 0 0 0 0 1 2 5 12 17 18 19 21 22 22 20 17 15 16 16 15 14 13 9 6 4 4 3 3
0 0 0 0 0 0 0 0 0 0 0 0 0 0 0 0 0 0 0 0 0 1 3 9 16 18 19 21 23 23 20 16 14 14 15 14 13 12 10 7 6 4 4 4
0 0 0 0 0 0 0 0 0 0 0 0 0 0 0 0 0 0 0 0 0 1 2 5 10 14 17 19 21 21 19 16 12 11 12 12 10 10 9 8 7 6 6 6
0 0 0 0 0 0 0 0 0 0 0 0 0 0 0 0 0 0 0 0 1 2 4 5 7 10 14 17 18 18 17 15 11 9 8 8 8 8 9 9 7 7 7 8
0 0 0 0 0 0 0 0 0 0 0 0 0 0 0 0 0 0 0 2 3 5 6 8 9 10 13 16 17 17 16 14 10 8 7 6 6 6 7 8 7 7 7 6
0 0 0 0 0 0 0 0 0 0 0 0 0 0 0 0 0 0 1 4 5 6 7 9 11 12 13 16 18 18 16 12 9 8 8 7 5 4 4 6 7 6 5 3
0 0 0 0 0 0 0 0 0 0 0 0 0 0 0 0 0 1 2 4 5 6 7 8 11 12 12 15 18 18 16 13 9 8 8 7 5 2 3 5 7 6 4 3
0 0 0 0 0 0 0 0 0 0 0 0 0 0 0 0 1 2 2 2 3 5 6 8 11 12 11 12 15 16 16 14 10 8 8 7 4 1 2 6 7 6 4 3
0 0 0 0 0 0 0 0 0 0 0 0 0 0 0 0 1 2 2 1 2 3 5 9 13 14 12 10 11 13 14 12 9 7 7 7 4 1 1 4 6 6 4 2
0 0 0 0 0 0 0 0 0 0 0 0 0 0 0 0 1 2 3 1 1 1 4 8 12 13 11 7 7 10 10 9 6 5 6 6 4 1 0 2 3 5 4 3
0 0 0 0 0 0 0 0 0 0 0 0 0 0 0 0 1 3 3 3 2 2 4 8 11 11 8 6 6 7 7 6 5 5 6 7 5 2 0 0 1 3 4 4
0 0 0 0 0 0 0 0 0 0 0 0 0 0 0 1 2 3 4 4 4 4 5 9 12 11 9 7 7 8 6 5 5 6 7 8 7 4 1 0 1 2 3 3
0 0 0 0 0 0 0 0 0 0 0 0 0 0 0 1 2 3 3 4 5 5 5 8 11 12 11 10 10 10 9 8 7 6 6 7 7 5 2 0 0 2 3 3
0 0 0 0 0 0 0 0 0 0 0 0 0 0 0 1 3 3 3 3 3 4 5 8 10 12 13 13 11 10 10 10 9 6 5 5 5 5 3 1 1 2 3 3
0 0 0 0 0 0 0 0 0 0 0 1 1 1 1 2 3 3 3 3 2 2 5 8 9 11 13 13 11 9 8 7 8 7 5 4 4 4 3 2 3 4 3 3
0 0 0 0 0 0 0 0 0 0 1 2 2 2 2 2 2 2 3 3 2 2 3 5 7 9 10 10 10 8 6 4 5 6 7 6 4 3 4 4 5 5 4 4
0 0 0 0 0 0 0 0 1 1 2 2 2 2 2 1 1 1 1 2 2 2 3 3 5 6 6 6 7 7 5 3 4 5 7 7 6 5 5 6 6 5 5 5
0 0 0 0 0 0 0 0 0 1 2 1 1 1 1 1 0 0 0 1 1 1 2 3 5 5 5 5 6 6 5 4 3 3 4 6 7 7 7 7 6 6 6 5
0 0 0 0 0 0 0 1 1 1 2 1 1 0 0 1 0 0 0 0 0 1 2 4 5 6 5 5 5 6 6 4 3 2 2 4 6 7 7 7 7 7 6 5
1 1 1 1 0 0 1 1 2 3 3 2 1 0 0 0 0 0 0 0 1 2 2 2 3 5 5 5 5 6 7 6 3 2 3 3 5 6 6 7 7 7 6 5
2 2 2 1 0 0 1 1 2 3 2 1 1 0 0 0 0 0 0 0 1 1 1 1 1 2 3 4 5 6 7 7 4 3 3 3 4 5 6 7 7 6 6 5
2 3 3 1 0 1 1 0 0 1 1 0 0 0 0 0 0 0 0 0 0 0 0 0 0 1 1 2 3 4 5 6 5 4 3 3 3 3 5 7 7 7 6 6
3 4 3 1 1 2 1 0 0 0 0 0 0 0 0 0 0 0 0 0 0 0 0 0 0 0 0 1 1 1 3 4 4 3 3 3 2 2 4 6 6 5 5 5
2 4 4 2 2 3 2 1 0 1 1 1 0 0 0 0 0 0 0 0 0 1 1 1 0 0 0 0 0 1 3 3 2 3 3 3 2 3 4 5 4 3 2 2
Wind_Speed
6 8 7 4 6 7 7 8 7 4 2 6 7 7 6 7 9 8 8 7 7 7 7 6 6 6 5 4 5 5 5 5 4 3 3 3 3 2 2 2 2 2 2 2
8 8 5 4 5 7 8 8 7 3 2 5 7 7 6 7 9 8 8 8 8 7 7 7 6 6 5 5 5 5 6 5 5 3 2 2 2 2 1 1 2 2 2 2
9 3 2 5 6 8 8 8 7 5 4 7 7 8 8 7 8 8 9 8 8 8 8 8 7 7 6 6 6 5 5 4 4 4 3 3 2 2 2 2 2 2 2 2
7 4 5 8 7 8 7 4 6 7 8 5 6 7 5 7 8 9 9 9 8 8 7 7 7 7 7 6 6 6 5 5 4 4 4 4 3 3 2 1 2 2 2 2
6 5 7 8 6 6 5 3 6 7 8 8 7 8 3 5 7 8 8 8 8 7 7 8 8 7 7 7 6 6 6 5 5 5 4 5 4 2 2 2 2 1 2 2
7 4 6 5 3 4 4 5 6 8 8 8 5 7 3 3 5 5 6 7 7 8 7 7 7 7 7 7 7 7 7 6 6 5 5 4 4 3 3 3 2 2 2 2
7 6 5 4 6 6 7 8 6 7 6 3 2 6 2 1 1 2 3 5 6 7 7 7 7 7 7 7 7 7 7 6 6 6 5 4 4 4 4 3 3 3 2 2
6 5 4 4 6 5 6 8 7 6 5 3 4 5 1 2 1 2 3 4 5 6 7 7 7 7 7 8 8 8 7 7 6 6 5 4 4 4 3 3 3 3 2 2
5 3 3 4 4 6 6 7 7 9 9 8 4 3 3 3 4 4 4 4 5 6 7 7 8 8 8 8 7 8 8 7 6 6 5 5 4 3 3 3 4 3 2 3
6 7 4 4 6 6 6 4 5 7 6 7 5 5 2 3 4 4 4 4 4 5 6 7 7 7 7 7 7 7 7 7 6 6 5 4 5 5 4 4 3 3 3 2
6 7 5 6 7 6 6 6 6 6 7 8 6 1 3 1 1 2 3 3 3 5 6 7 7 7 7 7 7 7 7 7 7 6 6 5 5 5 5 4 4 3 3 3
5 6 7 6 3 5 8 7 7 7 6 7 8 2 4 0 1 1 2 2 3 4 5 7 7 7 7 7 7 7 7 7 7 6 6 5 5 5 5 4 4 3 3 3
4 5 7 6 7 6 6 7 9 8 8 7 8 3 4 2 1 1 2 2 3 4 5 7 7 7 7 7 7 7 7 7 7 7 7 6 6 6 5 4 4 4 3 3
5 7 8 8 6 4 6 8 9 10 8 9 9 8 4 3 3 2 2 3 4 5 6 6 7 6 6 6 7 7 7 7 7 6 6 6 6 5 5 4 4 4 4 4
5 8 9 10 9 9 10 10 10 11 12 11 10 9 7 5 5 3 3 3 4 6 6 7 7 6 6 6 7 7 7 6 6 6 6 5 5 5 4 4 4 5 5 4
5 7 8 10 9 10 11 11 11 11 11 12 12 10 5 4 4 4 4 4 5 5 5 6 7 7 6 6 7 7 7 7 6 6 5 5 5 5 5 5 5 5 4 4
6 6 8 9 6 9 10 7 8 9 8 9 9 6 4 4 4 5 4 5 5 4 4 5 6 6 5 6 6 7 7 7 6 6 5 5 5 5 4 4 4 4 4 4
7 8 6 8 7 10 1 1 4 7 7 6 6 5 4 4 3 2 3 4 3 3 3 4 4 5 5 5 6 6 6 7 6 6 6 6 5 5 4 4 4 4 3 3
9 8 7 7 9 9 3 1 3 6 5 3 5 4 3 2 4 4 2 2 2 2 2 3 4 4 4 5 6 6 6 6 6 6 6 5 5 5 5 4 4 3 4 4
8 8 9 8 10 9 1 2 3 6 6 0 3 3 3 4 5 2 2 2 2 2 2 3 4 4 5 5 5 6 6 6 6 6 5 5 5 5 5 4 4 3 4 4
7 8 10 10 10 5 2 2 2 6 2 4 3 3 3 4 3 2 2 3 3 3 4 4 4 4 4 5 6 6 5 5 5 5 5 5 4 4 4 4 3 4 4 4
7 6 7 8 9 4 3 1 2 4 4 3 3 2 3 2 0 1 2 4 4 4 5 5 5 4 4 5 5 5 5 4 4 4 4 4 4 4 4 4 3 4 4 4
4 5 4 4 3 3 2 2 3 3 4 4 3 3 3 3 3 2 3 4 5 5 5 5 5 5 4 5 5 5 4 4 4 5 5 4 5 4 4 4 4 4 4 4
3 4 5 5 3 4 3 3 4 4 5 5 4 4 4 4 4 3 3 4 4 5 5 5 5 5 5 5 5 4 4 4 5 5 4 4 4 5 4 4 4 3 3 3
5 4 5 7 5 5 5 6 6 6 5 4 3 4 4 4 4 4 3 4 4 4 4 5 5 5 5 4 4 3 3 4 4 4 4 4 4 4 4 5 3 4 3 2
4 5 6 6 5 6 7 7 8 6 5 4 3 3 3 4 3 3 3 4 4 4 4 5 5 4 4 4 4 4 4 5 5 4 4 4 4 3 4 4 4 2 3 1
Wind_Direction
207 239 250 277 277 293 296 289 284 277 247 258 255 249 222 203 212 214 208 202 198 196 187 177 176 180 177 180 189 188 181 172 182 184 189 184 181 184 183 183 167 180 181 182
221 238 268 285 272 265 268 275 276 249 193 258 263 257 233 215 219 220 218 212 208 197 183 178 180 181 183 184 185 185 178 178 185 176 182 186 178 181 167 154 151 180 184 204
253 295 277 258 256 264 267 279 287 280 254 236 255 244 216 206 215 218 221 220 215 206 195 185 184 188 187 186 189 185 173 174 181 173 173 161 161 183 173 170 172 176 188 192
254 256 253 258 265 275 276 293 278 265 256 246 235 268 208 202 207 213 215 215 213 203 198 191 187 192 193 192 187 182 174 171 173 178 184 185 186 182 177 183 157 164 184 188
252 250 258 265 282 274 292 299 267 261 260 267 237 263 233 192 216 211 207 210 208 202 199 197 195 195 194 190 181 178 176 174 177 184 187 196 193 175 163 163 145 174 165 172
259 257 267 275 272 252 246 243 240 241 247 251 244 259 259 191 226 216 199 200 203 201 196 199 195 190 190 184 179 176 173 171 176 183 190 200 192 179 166 172 167 186 172 174
232 216 209 241 235 206 234 260 254 233 228 241 178 249 265 97 211 241 221 202 202 201 192 191 193 188 186 183 179 176 173 172 177 181 190 196 193 185 187 191 178 195 189 175
256 227 189 216 253 261 239 261 281 290 290 282 202 246 173 125 182 229 226 208 197 198 191 189 190 188 184 181 179 178 177 175 179 184 189 191 195 197 187 194 200 196 204 181
277 267 171 210 246 264 243 252 282 281 279 273 243 222 188 183 202 197 198 194 192 192 188 187 186 187 184 179 179 179 177 177 181 183 183 183 187 190 184 192 204 197 203 196
275 272 236 202 218 218 269 273 254 263 281 275 259 247 222 176 197 186 195 199 187 184 183 183 183 184 184 177 172 176 176 176 177 180 184 175 178 186 188 199 200 201 208 207
260 263 239 213 233 242 222 231 250 261 274 284 286 297 71 179 211 211 197 195 187 181 181 178 176 177 176 172 168 172 175 176 176 181 180 173 179 187 195 196 199 201 202 200
240 267 265 246 237 261 249 251 246 258 261 261 277 281 92 172 189 210 197 183 185 183 179 173 170 170 173 172 170 170 176 179 178 179 177 179 186 189 195 192 188 190 197 202
218 246 256 224 191 204 234 242 249 256 265 261 263 254 113 154 203 225 219 198 182 180 176 168 167 170 174 174 173 172 178 178 178 178 180 182 190 192 194 196 192 192 196 204
245 249 262 274 290 275 247 243 243 250 256 262 262 273 254 243 249 239 222 205 181 176 175 173 172 172 171 174 174 175 175 173 176 179 182 182 186 191 193 196 196 198 203 209
246 251 259 269 275 271 263 260 249 248 259 268 276 276 279 268 264 260 233 207 191 180 179 180 180 175 173 174 175 173 169 170 172 178 183 181 181 185 192 200 198 199 205 209
239 262 264 261 258 260 261 258 252 249 255 261 267 271 282 278 254 245 232 213 204 197 192 188 185 180 179 178 177 171 168 166 170 179 181 177 182 188 194 200 198 201 204 210
230 244 263 269 266 263 254 254 250 242 250 263 269 281 286 259 245 240 221 208 212 206 201 193 188 184 181 178 177 175 169 167 170 177 181 180 185 189 195 199 197 202 203 207
244 248 257 272 269 256 298 353 272 263 261 265 274 288 289 267 252 214 203 204 213 208 202 189 182 179 175 170 172 173 170 170 172 175 180 180 186 188 194 201 203 206 207 210
227 241 254 260 263 262 228 253 277 269 263 277 276 280 264 241 217 176 149 195 204 190 190 180 175 168 162 165 165 166 170 174 178 178 181 183 188 188 191 197 201 202 208 214
206 229 248 251 261 264 304 30 317 270 247 3 284 272 253 225 237 152 133 192 176 166 170 160 156 154 157 157 158 164 169 174 181 182 181 179 187 191 196 198 204 207 214 219
206 218 237 251 256 262 359 12 252 253 347 12 313 279 245 241 312 43 162 180 172 168 161 152 149 148 154 156 159 167 172 178 179 178 180 178 184 193 193 191 198 211 220 222
239 238 233 244 251 255 46 164 273 335 344 320 312 295 252 245 247 152 174 173 172 168 161 157 152 148 153 160 165 172 178 176 180 181 187 189 192 199 183 193 205 216 228 223
255 284 281 271 288 6 4 311 323 319 307 310 304 297 254 234 225 206 179 174 175 171 165 165 161 155 160 169 176 177 177 181 186 191 194 199 201 203 197 206 209 214 223 240
256 292 270 265 274 315 323 327 321 308 306 308 297 278 251 240 230 213 188 173 171 170 170 171 169 166 168 175 179 181 183 186 187 190 196 201 207 209 202 221 223 228 229 242
304 285 265 259 287 301 297 308 309 304 299 297 284 266 252 236 222 207 195 186 180 178 180 180 181 175 172 175 176 182 186 188 193 198 202 209 217 219 216 222 233 240 246 271
277 281 276 280 304 297 302 306 301 290 286 285 273 255 241 234 217 202 194 189 184 179 177 181 183 183 182 184 185 188 192 197 203 208 210 216 217 216 229 223 214 209 249 191